Location: Bacea
(45.9500°N, 22.6667°E)
Time: 09:47:15
(UTC+00:00)

Timation 2 Rocket - Pass Details

Date: 16 October 2021
Orbit: 904 x 1077 km, 70.0° (Epoch: 07 December)

Event Time Altitude Azimuth Distance (km) Brightness Sun altitude
Rises 16:01:38 0° 332° (NNW) 3,882 7.4 -4.3°
Reaches altitude 10° 16:04:20 10° 336° (NNW) 2,924 6.7 -4.7°
Maximum altitude 16:11:13 68° 59° (ENE) 1,146 4.2 -5.9°
Drops below altitude 10° 16:17:56 10° 142° (SE) 2,852 6.1 -7.1°
Sets 16:20:31 0° 145° (SE) 3,781 6.8 -7.5°
